[keps] orb09328.amsat

Ray Hoad ray.hoad at mypbmail.com
Tue Nov 24 19:40:56 PST 2009


SB KEPS @ AMSAT  $ORB09328.O
Orbital Elements  09328.OSCAR

HR AMSAT ORBITAL ELEMENTS FOR OSCAR SATELLITES
FROM WA5QGD FORT WORTH,TX November 24, 2009
Send Subscribe/unsubscribe to KEPS at http://www.amsat.org/mailman/listinfo/keps
BID: ORB09328.O
TO ALL RADIO AMATEURS BT

Satellite: AO-07
Catalog number: 07530
Epoch time:      09327.62165578
Element set:    0638
Inclination:      101.4154 deg
RA of node:       346.3792 deg
Eccentricity:    0.0011976
Arg of perigee:   317.4829 deg
Mean anomaly:     042.5315 deg
Mean motion:   12.53577134 rev/day
Decay rate:       -2.7e-07 rev/day^2
Epoch rev:           60269
Checksum:              310

Satellite: FO-29
Catalog number: 24278
Epoch time:      09327.59097891
Element set:    0196
Inclination:      098.5221 deg
RA of node:       180.0030 deg
Eccentricity:    0.0350080
Arg of perigee:   297.2677 deg
Mean anomaly:     059.3206 deg
Mean motion:   13.52946364 rev/day
Decay rate:       -4.5e-07 rev/day^2
Epoch rev:           65530
Checksum:              322

Satellite: SO-33
Catalog number: 25509
Epoch time:      09327.83768203
Element set:     592
Inclination:      031.4351 deg
RA of node:       229.7369 deg
Eccentricity:    0.0354844
Arg of perigee:   294.3279 deg
Mean anomaly:     062.0681 deg
Mean motion:   14.28270330 rev/day
Decay rate:       -3.5e-07 rev/day^2
Epoch rev:           57867
Checksum:              326

Satellite: RS-22
Catalog number: 27939
Epoch time:      09327.65564027
Element set:     945
Inclination:      097.9167 deg
RA of node:       196.4944 deg
Eccentricity:    0.0013703
Arg of perigee:   353.7760 deg
Mean anomaly:     006.3275 deg
Mean motion:   14.63359585 rev/day
Decay rate:       1.39e-06 rev/day^2
Epoch rev:           32889
Checksum:              354

Satellite: VO-52
Catalog number: 28650
Epoch time:      09327.90515546
Element set:     370
Inclination:      097.7239 deg
RA of node:       024.0294 deg
Eccentricity:    0.0026133
Arg of perigee:   226.6331 deg
Mean anomaly:     133.3147 deg
Mean motion:   14.81643334 rev/day
Decay rate:      -6.30e-06 rev/day^2
Epoch rev:           24629
Checksum:              292

Satellite: SO-67
Catalog number: 35870
Epoch time:      09328.82567255
Element set:     202
Inclination:      097.3627 deg
RA of node:       017.5904 deg
Eccentricity:    0.0013068
Arg of perigee:   059.1515 deg
Mean anomaly:     062.5965 deg
Mean motion:   15.22864574 rev/day
Decay rate:       6.02e-06 rev/day^2
Epoch rev:            1036
Checksum:              311

/EX
SB KEPS @ AMSAT  $ORB09328.D
Orbital Elements  09328.MICROS

HR AMSAT ORBITAL ELEMENTS FOR THE MICROSATS
FROM WA5QGD FORT WORTH,TX November 24, 2009
Send Subscribe/unsubscribe to KEPS at http://www.amsat.org/mailman/listinfo/keps
BID: ORB09328.D
TO ALL RADIO AMATEURS BT

Satellite: UO-11
Catalog number: 14781
Epoch time:      09327.73185765
Element set:     112
Inclination:      098.0860 deg
RA of node:       013.5149 deg
Eccentricity:    0.0008907
Arg of perigee:   176.2963 deg
Mean anomaly:     183.8288 deg
Mean motion:   14.79748918 rev/day
Decay rate:        4.5e-07 rev/day^2
Epoch rev:           38142
Checksum:              336

Satellite: AO-16
Catalog number: 20439
Epoch time:      09327.46253054
Element set:    0758
Inclination:      098.3033 deg
RA of node:       288.8049 deg
Eccentricity:    0.0011838
Arg of perigee:   059.8414 deg
Mean anomaly:     300.3944 deg
Mean motion:   14.31839780 rev/day
Decay rate:       -1.0e-07 rev/day^2
Epoch rev:           03594
Checksum:              313

Satellite: LO-19
Catalog number: 20442
Epoch time:      09327.63325260
Element set:    0670
Inclination:      098.2660 deg
RA of node:       295.6060 deg
Eccentricity:    0.0012696
Arg of perigee:   055.6709 deg
Mean anomaly:     304.5685 deg
Mean motion:   14.32074135 rev/day
Decay rate:        7.0e-07 rev/day^2
Epoch rev:           03613
Checksum:              290

Satellite: AO-27
Catalog number: 22825
Epoch time:      09327.61872965
Element set:    0392
Inclination:      098.4599 deg
RA of node:       276.1849 deg
Eccentricity:    0.0008926
Arg of perigee:   149.6993 deg
Mean anomaly:     210.4693 deg
Mean motion:   14.29278816 rev/day
Decay rate:       -3.5e-07 rev/day^2
Epoch rev:           84268
Checksum:              375

Satellite: IO-26
Catalog number: 22826
Epoch time:      09327.65078507
Element set:    0129
Inclination:      098.4525 deg
RA of node:       276.8980 deg
Eccentricity:    0.0009319
Arg of perigee:   145.2685 deg
Mean anomaly:     214.9105 deg
Mean motion:   14.29532258 rev/day
Decay rate:       -1.2e-07 rev/day^2
Epoch rev:           84279
Checksum:              333

Satellite: GO-32
Catalog number: 25397
Epoch time:      09327.73795430
Element set:    0048
Inclination:      098.3178 deg
RA of node:       341.4710 deg
Eccentricity:    0.0001870
Arg of perigee:   121.0244 deg
Mean anomaly:     239.1119 deg
Mean motion:   14.23166289 rev/day
Decay rate:      -1.25e-06 rev/day^2
Epoch rev:           59082
Checksum:              299

Satellite: NO-44
Catalog number: 26931
Epoch time:      09327.58823580
Element set:     320
Inclination:      067.0521 deg
RA of node:       013.6779 deg
Eccentricity:    0.0007061
Arg of perigee:   270.2773 deg
Mean anomaly:     089.7525 deg
Mean motion:   14.29572983 rev/day
Decay rate:      -1.53e-06 rev/day^2
Epoch rev:           42536
Checksum:              316

Satellite: SO-50
Catalog number: 27607
Epoch time:      09327.29044255
Element set:    0040
Inclination:      064.5591 deg
RA of node:       261.8704 deg
Eccentricity:    0.0048195
Arg of perigee:   163.3135 deg
Mean anomaly:     196.9566 deg
Mean motion:   14.71476275 rev/day
Decay rate:        1.3e-07 rev/day^2
Epoch rev:           37208
Checksum:              311

Satellite: CO-55
Catalog number: 27844
Epoch time:      09327.65652323
Element set:     718
Inclination:      098.7125 deg
RA of node:       334.5764 deg
Eccentricity:    0.0010607
Arg of perigee:   046.7892 deg
Mean anomaly:     313.4161 deg
Mean motion:   14.20668537 rev/day
Decay rate:        5.6e-07 rev/day^2
Epoch rev:           33190
Checksum:              317

Satellite: CO-57
Catalog number: 27848
Epoch time:      09327.51560505
Element set:    0671
Inclination:      098.7168 deg
RA of node:       333.5056 deg
Eccentricity:    0.0010591
Arg of perigee:   051.1375 deg
Mean anomaly:     309.0739 deg
Mean motion:   14.20466464 rev/day
Decay rate:        3.4e-07 rev/day^2
Epoch rev:           33184
Checksum:              310

Satellite: AO-51
Catalog number: 28375
Epoch time:      09327.56898436
Element set:     540
Inclination:      098.0534 deg
RA of node:       327.9052 deg
Eccentricity:    0.0084864
Arg of perigee:   001.9227 deg
Mean anomaly:     358.2276 deg
Mean motion:   14.40659972 rev/day
Decay rate:        2.2e-07 rev/day^2
Epoch rev:           28390
Checksum:              335

Satellite: CO-56
Catalog number: 28941
Epoch time:      09297.68475575
Element set:     556
Inclination:      098.0955 deg
RA of node:       138.9518 deg
Eccentricity:    0.0011688
Arg of perigee:   319.8691 deg
Mean anomaly:     040.7485 deg
Mean motion:   16.46998778 rev/day
Decay rate:  1.4491492e-01 rev/day^2
Epoch rev:           20790
Checksum:              407

Satellite: GENESAT1
Catalog number: 29655
Epoch time:      09327.96948818
Element set:    0872
Inclination:      040.0217 deg
RA of node:       259.4454 deg
Eccentricity:    0.0005834
Arg of perigee:   274.0815 deg
Mean anomaly:     085.9343 deg
Mean motion:   15.70057212 rev/day
Decay rate:     2.7246e-04 rev/day^2
Epoch rev:           16755
Checksum:              327

Satellite: CP3
Catalog number: 31129
Epoch time:      09328.71816018
Element set:     348
Inclination:      097.9682 deg
RA of node:       013.9369 deg
Eccentricity:    0.0103010
Arg of perigee:   147.4137 deg
Mean anomaly:     213.3461 deg
Mean motion:   14.52184470 rev/day
Decay rate:       1.75e-06 rev/day^2
Epoch rev:           13818
Checksum:              291

Satellite: CO-65
Catalog number: 32785
Epoch time:      09327.18076277
Element set:    0536
Inclination:      097.9271 deg
RA of node:       029.6681 deg
Eccentricity:    0.0014066
Arg of perigee:   232.9176 deg
Mean anomaly:     127.0748 deg
Mean motion:   14.81545455 rev/day
Decay rate:        8.3e-07 rev/day^2
Epoch rev:           08498
Checksum:              345

Satellite: KKS-1
Catalog number: 33493
Epoch time:      09328.72597209
Element set:     970
Inclination:      098.0698 deg
RA of node:       081.7690 deg
Eccentricity:    0.0021237
Arg of perigee:   083.1652 deg
Mean anomaly:     277.1984 deg
Mean motion:   14.80783151 rev/day
Decay rate:       4.63e-06 rev/day^2
Epoch rev:            4522
Checksum:              325

Satellite: SOHLA-1
Catalog number: 33496
Epoch time:      09328.74756398
Element set:     934
Inclination:      098.0489 deg
RA of node:       075.6536 deg
Eccentricity:    0.0007453
Arg of perigee:   125.9917 deg
Mean anomaly:     234.1990 deg
Mean motion:   14.69456712 rev/day
Decay rate:        7.5e-07 rev/day^2
Epoch rev:            4485
Checksum:              353

/EX
SB KEPS @ AMSAT  $ORB09328.W
Orbital Elements  09328.WEATHER

HR AMSAT ORBITAL ELEMENTS FOR WEATHER SATELLITES
FROM WA5QGD FORT WORTH,TX November 24, 2009
Send Subscribe/unsubscribe to KEPS at http://www.amsat.org/mailman/listinfo/keps
BID: ORB09328.W
TO ALL RADIO AMATEURS BT

Satellite: NOAA-10
Catalog number: 16969
Epoch time:      09327.55902532
Element set:    0846
Inclination:      098.6784 deg
RA of node:       353.2384 deg
Eccentricity:    0.0013068
Arg of perigee:   091.9132 deg
Mean anomaly:     268.3554 deg
Mean motion:   14.27399194 rev/day
Decay rate:      -1.34e-06 rev/day^2
Epoch rev:           20624
Checksum:              330

